[[{"header":{"parameterUnit":"m.s-1","parameterCategory":1,"la1":30.2991,"la2":30.254,"lo1":-89.0895,"lo2":-89.0444,"dy":0.0017,"dx":0.0017,"nx":28,"ny":28,"refTime":"2025-09-08T09:00:00:Z","depth":0,"parameterNumber":2,"parameterNumberName":"U-component_of_WINDS"},"data":[0,0,0,0,0,0,0,0,0,0,0,0,0,0,0,0,0,0,0,0,0,0,0,0,0,0,0,0,0,0,0,0,0,0,0,0,0,0,0,0,0,0,0,0,0,0,0,0,0,0,0,0,0,0,0,0,0,0,-0.7927,-0.7927,0,-0.7957,-0.7957,-0.7958,-0.7904,-0.7902,-0.79,-0.7899,-0.7932,-0.7935,-0.7937,0,0,0,0,0,0,0,0,0,0,0,0,0,-0.7825,-0.7827,-0.7927,-0.7927,-0.7928,-0.7957,-0.7957,-0.7958,-0.7904,-0.7902,-0.79,-0.7898,-0.7931,-0.7934,-0.7937,0,0,0,0,0,0,0,0,0,0,0,0,0,-0.7864,-0.7828,-0.7927,-0.7905,-0.7903,-0.7957,-0.7957,-0.7958,-0.7905,-0.7902,-0.7899,-0.7897,-0.793,-0.7934,-0.7938,-0.8016,0,0,-0.795,-0.7951,0,0,0,0,0,0,0,0,-0.7862,-0.7867,-0.7907,-0.7906,-0.7904,-0.7924,-0.7933,-0.7977,-0.7905,-0.7904,-0.7898,-0.7895,-0.7932,-0.7935,-0.7947,-0.8018,-0.8019,-0.795,-0.7952,-0.7954,-0.7955,0,0,0,0,0,0,0,-0.7859,-0.7866,-0.7939,-0.7908,-0.7906,-0.7893,-0.7896,-0.7942,-0.7933,-0.7904,-0.79,-0.7904,-0.793,-0.7943,-0.7947,-0.802,-0.795,-0.7953,-0.7956,-0.7957,-0.8155,-0.8158,0,0,0,0,0,0,-0.7859,-0.7864,-0.7938,-0.794,-0.7876,-0.7897,-0.79,-0.792,-0.7932,-0.7931,-0.7906,-0.7902,-0.7938,-0.7943,-0.7948,-0.8041,-0.7954,-0.7958,-0.796,-0.8152,-0.8155,-0.8159,0,0,0,0,0,0,-0.7857,-0.7866,-0.7937,-0.7901,-0.7909,-0.7902,-0.7925,-0.7922,-0.7935,-0.7934,-0.7932,-0.7921,-0.7936,-0.7943,-0.7999,-0.8042,-0.7959,-0.7963,-0.8148,-0.8153,-0.8157,-0.8227,0,0,0,0,0,0,-0.7854,-0.7865,-0.7895,-0.7902,-0.7911,-0.7987,-0.7928,-0.7925,-0.7942,-0.7936,-0.7948,-0.7947,-0.7935,-0.7994,-0.8003,-0.8045,-0.7966,-0.8145,-0.8151,-0.8156,-0.8221,-0.8234,-0.8244,0,0,0,0,0,-0.7851,-0.7915,-0.7897,-0.7906,-0.7948,-0.799,-0.7995,-0.7979,-0.7945,-0.7975,-0.7974,-0.7947,-0.8034,-0.8,-0.801,-0.8054,-0.8142,-0.8149,-0.8155,-0.8216,-0.8231,-0.8244,0,0,0,0,0,0,-0.7915,-0.7915,-0.7896,-0.7964,-0.7977,-0.7981,-0.8018,-0.7995,-0.8019,-0.8013,-0.7991,-0.7995,-0.8056,-0.806,-0.8021,-0.813,-0.8083,-0.8092,-0.8126,-0.814,-0.8151,-0.815,-0.7969,0,0,0,0,0,-0.7937,-0.797,-0.7968,-0.8029,-0.8036,-0.8026,-0.8044,-0.8029,-0.8043,-0.8049,-0.8051,-0.8066,-0.8097,-0.8118,-0.8146,-0.822,-0.8222,-0.8255,-0.8267,-0.8276,-0.8285,-0.8325,-0.834,-0.818,-0.818,-0.818,0,0,-0.7983,-0.7987,-0.801,-0.8042,-0.805,-0.8086,-0.8031,-0.8072,-0.8098,-0.8055,-0.8109,-0.8111,-0.8126,-0.8191,-0.822,-0.8197,-0.8329,-0.8284,-0.8292,-0.8296,-0.8333,-0.8348,-0.8362,-0.8185,-0.8184,-0.8183,0,0,-0.8086,-0.8091,-0.8142,-0.8151,-0.8164,-0.8156,-0.8168,-0.8175,-0.8175,-0.8227,-0.8196,-0.8226,-0.828,-0.8292,-0.8305,-0.8408,-0.8385,-0.8418,-0.8479,-0.8518,-0.8531,-0.8542,-0.858,-0.8594,-0.8426,-0.8426,-0.8426,0,-0.8142,-0.8194,-0.8172,-0.8214,-0.8229,-0.8189,-0.824,-0.825,-0.8272,-0.8284,-0.8256,-0.8322,-0.8329,-0.8397,-0.8422,-0.8433,-0.8447,-0.8419,-0.853,-0.8541,-0.8551,-0.8588,-0.8602,-0.843,-0.843,-0.8429,-0.8429,0,-0.8263,-0.83,-0.8339,-0.836,-0.8379,-0.8426,-0.841,-0.8432,-0.8415,-0.841,-0.8464,-0.847,-0.8499,-0.8513,-0.8498,-0.8579,-0.8564,-0.8533,-0.8486,-0.8571,-0.8605,-0.8619,-0.8436,-0.8435,-0.8434,-0.8433,0,0,-0.8412,-0.8417,-0.8433,-0.8441,-0.8451,-0.8479,-0.8523,-0.8549,-0.8569,-0.8584,-0.8622,-0.8666,-0.8637,-0.8652,-0.8637,-0.867,-0.8753,-0.8636,-0.8636,-0.866,-0.8844,-0.887,-0.8886,-0.8736,-0.8738,-0.874,-0.8844,0,-0.8516,-0.8592,-0.8572,-0.8648,-0.8681,-0.8641,-0.868,-0.869,-0.8686,-0.8713,-0.8708,-0.8741,-0.87,-0.8708,-0.8739,-0.8737,-0.8791,-0.8729,-0.8772,-0.8774,-0.8773,-0.8904,-0.8931,-0.9029,-0.8857,-0.8859,-0.8861,0,-0.8649,-0.8668,-0.8747,-0.875,-0.8763,-0.8798,-0.882,-0.8846,-0.8857,-0.8851,-0.8866,-0.8843,-0.8886,-0.8836,-0.8896,-0.8854,-0.887,-0.8871,-0.8874,-0.888,-0.8825,-0.8916,-0.9059,-0.9075,-0.8881,-0.8879,-0.8878,0,-0.8752,-0.8797,-0.885,-0.8858,-0.8862,-0.8888,-0.8891,-0.8898,-0.8915,-0.8934,-0.8944,-0.8968,-0.8982,-0.9001,-0.8986,-0.895,-0.9049,-0.8997,-0.9047,-0.9047,-0.9073,-0.9072,-0.9224,-0.9078,-0.9077,-0.9077,-0.9077,0,-0.8872,-0.8923,-0.8897,-0.893,-0.8985,-0.896,-0.9015,-0.9013,-0.9019,-0.9052,-0.9018,-0.9049,-0.9024,-0.9053,-0.904,-0.9093,-0.9099,-0.9096,-0.9093,-0.9102,-0.9102,-0.9114,-0.9108,-0.9081,-0.908,-0.9079,-0.9079,0,-0.8999,-0.8983,-0.9039,-0.9037,-0.9037,-0.9078,-0.9077,-0.9107,-0.9098,-0.914,-0.9148,-0.9135,-0.9167,-0.9152,-0.9185,-0.9177,-0.9245,-0.9231,-0.9242,-0.9239,-0.9291,-0.9288,-0.9459,-0.948,-0.9318,-0.9319,-0.9321,0,-0.9079,-0.9117,-0.9118,-0.9136,-0.9141,-0.9172,-0.9188,-0.9163,-0.9182,-0.9194,-0.9224,-0.9252,-0.9274,-0.9327,-0.9321,-0.9346,-0.9335,-0.9392,-0.9339,-0.9346,-0.9339,-0.9338,-0.9342,-0.9405,-0.9407,-0.9408,-0.9409,0,-0.9223,-0.9212,-0.9236,-0.9258,-0.9278,-0.9294,-0.9307,-0.9324,-0.9299,-0.9322,-0.9353,-0.937,-0.9403,-0.9432,-0.9453,-0.9457,-0.943,-0.9425,-0.9439,-0.945,-0.9456,-0.9455,-0.9275,-0.9423,-0.9422,-0.9421,-0.942,-0.9419,-0.933,-0.9362,-0.9367,-0.9395,-0.9401,-0.9414,-0.9442,-0.9436,-0.9461,-0.9486,-0.9469,-0.9507,-0.9514,-0.9539,-0.9546,-0.9575,-0.9552,-0.9571,-0.9576,-0.9582,-0.959,-0.9448,-0.9578,-0.9578,-0.9577,-0.9577,-0.9577,0,-0.9474,-0.9475,-0.95,-0.9519,-0.9541,-0.951,-0.9522,-0.9543,-0.9576,-0.9584,-0.9605,-0.9641,-0.9668,-0.9663,-0.9688,-0.9712,-0.97,-0.972,-0.972,-0.9721,-0.9608,-0.9595,-0.9729,-0.9729,-0.9729,-0.9729,-0.9729,-0.9729,-0.9552,-0.9604,-0.9594,-0.9648,-0.9648,-0.9684,-0.9693,-0.9704,-0.9711,-0.9752,-0.9774,-0.9769,-0.9772,-0.9796,-0.982,-0.9817,-0.9829,-0.9854,-0.9848,-0.9744,-0.9729,-0.9715,-0.9702,-0.9856,-0.9856,-0.9958,-0.9959,-0.9959]},{"header":{"parameterUnit":"m.s-1","parameterCategory":1,"la1":30.2991,"la2":30.254,"lo1":-89.0895,"lo2":-89.0444,"dy":0.0017,"dx":0.0017,"nx":28,"ny":28,"refTime":"2025-09-08T09:00:00:Z","depth":0,"parameterNumber":3,"parameterNumberName":"V-component_of_WINDS"},"data":[0,0,0,0,0,0,0,0,0,0,0,0,0,0,0,0,0,0,0,0,0,0,0,0,0,0,0,0,0,0,0,0,0,0,0,0,0,0,0,0,0,0,0,0,0,0,0,0,0,0,0,0,0,0,0,0,0,0,-4.257,-4.2571,0,-4.268,-4.2681,-4.2683,-4.2658,-4.2655,-4.2653,-4.2651,-4.2758,-4.2763,-4.2767,0,0,0,0,0,0,0,0,0,0,0,0,0,-4.2331,-4.2336,-4.257,-4.2571,-4.2573,-4.268,-4.2681,-4.2683,-4.2658,-4.2655,-4.2653,-4.2651,-4.2757,-4.2762,-4.2768,0,0,0,0,0,0,0,0,0,0,0,0,0,-4.2438,-4.2338,-4.257,-4.2573,-4.2575,-4.268,-4.2681,-4.2683,-4.2658,-4.2655,-4.2652,-4.2649,-4.2755,-4.2762,-4.2769,-4.2875,0,0,-4.2791,-4.2794,0,0,0,0,0,0,0,0,-4.2432,-4.2446,-4.2571,-4.2573,-4.2575,-4.2652,-4.2636,-4.2747,-4.2659,-4.2626,-4.2651,-4.2648,-4.2725,-4.2734,-4.2762,-4.288,-4.2884,-4.2791,-4.2796,-4.2799,-4.2801,0,0,0,0,0,0,0,-4.2424,-4.2441,-4.2613,-4.2573,-4.2575,-4.2567,-4.2579,-4.2657,-4.2691,-4.2629,-4.2628,-4.2641,-4.2725,-4.2755,-4.2764,-4.2886,-4.2791,-4.2797,-4.2802,-4.2805,-4.3095,-4.3098,0,0,0,0,0,0,-4.2416,-4.2435,-4.261,-4.2617,-4.2494,-4.2574,-4.2587,-4.263,-4.2691,-4.2697,-4.2644,-4.264,-4.2744,-4.2756,-4.2768,-4.2894,-4.2799,-4.2805,-4.2809,-4.3091,-4.3095,-4.3099,0,0,0,0,0,0,-4.2411,-4.2432,-4.2605,-4.2526,-4.2547,-4.2582,-4.263,-4.2634,-4.2664,-4.2702,-4.2707,-4.2668,-4.2742,-4.2757,-4.2848,-4.2898,-4.2808,-4.2815,-4.3087,-4.3093,-4.3097,-4.315,0,0,0,0,0,0,-4.2404,-4.243,-4.2473,-4.2527,-4.2552,-4.2687,-4.2633,-4.2639,-4.2677,-4.2672,-4.2726,-4.2732,-4.2741,-4.2838,-4.2855,-4.2906,-4.2821,-4.3083,-4.309,-4.3096,-4.3144,-4.3156,-4.3167,0,0,0,0,0,-4.2396,-4.2482,-4.2475,-4.2496,-4.2606,-4.2689,-4.2703,-4.2714,-4.2681,-4.2723,-4.2747,-4.273,-4.289,-4.2847,-4.2867,-4.292,-4.308,-4.3088,-4.3095,-4.3139,-4.3154,-4.3166,0,0,0,0,0,0,-4.2431,-4.2489,-4.2482,-4.2589,-4.2635,-4.2685,-4.2738,-4.2729,-4.2784,-4.2777,-4.2786,-4.2798,-4.289,-4.2915,-4.2866,-4.3025,-4.298,-4.2992,-4.3006,-4.3021,-4.3032,-4.3023,-4.2826,0,0,0,0,0,-4.2451,-4.2517,-4.2563,-4.2653,-4.2677,-4.2704,-4.274,-4.2745,-4.2791,-4.281,-4.2841,-4.2885,-4.2945,-4.2985,-4.3042,-4.3148,-4.3157,-4.3194,-4.3205,-4.3214,-4.3224,-4.328,-4.3296,-4.3124,-4.3124,-4.3124,0,0,-4.2493,-4.2534,-4.2574,-4.2661,-4.2697,-4.2762,-4.272,-4.2791,-4.2839,-4.282,-4.2908,-4.2932,-4.2982,-4.308,-4.3125,-4.3103,-4.3274,-4.3224,-4.3231,-4.3236,-4.3289,-4.3305,-4.332,-4.313,-4.3129,-4.3128,0,0,-4.2603,-4.2642,-4.272,-4.2757,-4.2812,-4.283,-4.2848,-4.2901,-4.2916,-4.3005,-4.2992,-4.3048,-4.3152,-4.3188,-4.3219,-4.3342,-4.3328,-4.3361,-4.342,-4.3474,-4.3487,-4.3499,-4.3541,-4.3556,-4.337,-4.3371,-4.3371,0,-4.2648,-4.2748,-4.276,-4.2833,-4.287,-4.2859,-4.2936,-4.2971,-4.3042,-4.3067,-4.3042,-4.3171,-4.3204,-4.331,-4.334,-4.3366,-4.3386,-4.3354,-4.3485,-4.3497,-4.3508,-4.3548,-4.3564,-4.3374,-4.3374,-4.3373,-4.3373,0,-4.2799,-4.2869,-4.2925,-4.2995,-4.3039,-4.3114,-4.3135,-4.3178,-4.3178,-4.3197,-4.3286,-4.3326,-4.339,-4.3415,-4.3416,-4.3521,-4.3505,-4.3483,-4.3437,-4.3528,-4.3565,-4.3581,-4.3379,-4.3378,-4.3377,-4.3376,0,0,-4.2934,-4.301,-4.303,-4.3062,-4.3122,-4.3175,-4.3248,-4.3313,-4.3348,-4.3397,-4.3457,-4.3545,-4.3524,-4.356,-4.3564,-4.3612,-4.3705,-4.3583,-4.3584,-4.3603,-4.382,-4.3835,-4.3853,-4.3696,-4.3699,-4.3702,-4.3815,0,-4.3048,-4.3179,-4.3192,-4.3308,-4.3371,-4.3361,-4.3424,-4.3466,-4.3486,-4.3541,-4.3561,-4.3623,-4.3592,-4.3614,-4.3661,-4.3684,-4.3748,-4.3676,-4.3749,-4.3752,-4.3736,-4.3873,-4.389,-4.3995,-4.383,-4.3833,-4.3835,0,-4.3198,-4.3253,-4.3377,-4.3428,-4.3454,-4.3511,-4.3571,-4.3624,-4.3671,-4.3682,-4.3723,-4.372,-4.3793,-4.3745,-4.3844,-4.3795,-4.3825,-4.3841,-4.3845,-4.3851,-4.3797,-4.3881,-4.4029,-4.4044,-4.3858,-4.3856,-4.3855,0,-4.3281,-4.3386,-4.3473,-4.3501,-4.3563,-4.3602,-4.363,-4.3674,-4.3712,-4.3763,-4.3788,-4.3846,-4.3878,-4.3923,-4.3935,-4.39,-4.4033,-4.3987,-4.4041,-4.4041,-4.4068,-4.4066,-4.4222,-4.4092,-4.4091,-4.4091,-4.4091,0,-4.3406,-4.3482,-4.3512,-4.3565,-4.3648,-4.3661,-4.3742,-4.3767,-4.3807,-4.3863,-4.3857,-4.3909,-4.3923,-4.3978,-4.3988,-4.4067,-4.4081,-4.409,-4.4091,-4.409,-4.4088,-4.4109,-4.4101,-4.4095,-4.4094,-4.4093,-4.4093,0,-4.3513,-4.3536,-4.363,-4.3681,-4.3696,-4.3755,-4.3797,-4.3847,-4.3866,-4.3937,-4.3954,-4.3984,-4.4047,-4.4064,-4.414,-4.4147,-4.4239,-4.4234,-4.4223,-4.4223,-4.4275,-4.4269,-4.4448,-4.4471,-4.4328,-4.4329,-4.433,0,-4.359,-4.3648,-4.3706,-4.3744,-4.3773,-4.3835,-4.3874,-4.3888,-4.3928,-4.3986,-4.4029,-4.4092,-4.4143,-4.4244,-4.427,-4.4328,-4.4323,-4.4382,-4.4331,-4.4327,-4.4321,-4.4317,-4.4322,-4.4391,-4.4392,-4.4393,-4.4394,0,-4.3724,-4.3733,-4.379,-4.3852,-4.3899,-4.3948,-4.3994,-4.4025,-4.4046,-4.4091,-4.4157,-4.4196,-4.4274,-4.4336,-4.4394,-4.4419,-4.4409,-4.441,-4.4426,-4.4423,-4.4414,-4.4417,-4.4247,-4.4406,-4.4405,-4.4404,-4.4403,-4.4403,-4.3817,-4.3867,-4.3916,-4.398,-4.4016,-4.406,-4.4109,-4.4135,-4.4191,-4.4257,-4.4261,-4.4332,-4.4376,-4.4453,-4.4481,-4.4535,-4.4517,-4.454,-4.4545,-4.455,-4.4553,-4.4407,-4.4546,-4.4545,-4.4545,-4.4545,-4.4545,0,-4.3949,-4.398,-4.4038,-4.4104,-4.4154,-4.4144,-4.4194,-4.4236,-4.4299,-4.4342,-4.4392,-4.4467,-4.4526,-4.4558,-4.4617,-4.4653,-4.465,-4.4668,-4.4664,-4.467,-4.4567,-4.4547,-4.4669,-4.4669,-4.4669,-4.4669,-4.4669,-4.4669,-4.4023,-4.4107,-4.4122,-4.4223,-4.4253,-4.4324,-4.4353,-4.4392,-4.4427,-4.4511,-4.4561,-4.4582,-4.462,-4.4681,-4.4734,-4.4742,-4.4762,-4.4782,-4.4787,-4.469,-4.4677,-4.4665,-4.4646,-4.4787,-4.4787,-4.4885,-4.4886,-4.4886]}]]